Location: Napier
(39.4830°S, 176.9170°E)
Time: 10:12:48
(UTC+12:00)

Cosmos 540 Rocket - Pass Details

Date: 24 January 2019
Orbit: 740 x 754 km, 74.1° (Epoch: 19 April)

Event Time Altitude Azimuth Distance (km) Brightness Sun altitude
Rises 22:09:34 0° 195° (SSW) 3,244 7.7 -15.8°
Reaches altitude 10° 22:12:02 10° 189° (S) 2,311 6.8 -16.1°
Maximum altitude 22:17:09 53° 112° (ESE) 935 3.8 -16.8°
Enters shadow 22:19:30 30° 50° (NE) 1,342 4.2 -17.1°
